This is the latest recevied weather packets stored in our database for station/object KD9CCP. If no packets are shown the sender has not sent any weather packets the latest 1 day(s).
| Time | Temp. | Humidity | Pressure | Rain* | Wind** | Luminosity | Snow |
|---|---|---|---|---|---|---|---|
| 1778025966 | 4.44° C | 59% | 1010.7 hPa | 0 mm | 0.89 m/s, 351° | 10 W/m² | - |
| 1778025663 | 5° C | 57% | 1011 hPa | 0 mm | 0 m/s | 10 W/m² | - |
| 1778025361 | 5° C | 56% | 1010.6 hPa | 0 mm | 0.89 m/s, 352° | 12 W/m² | - |
| 1778025057 | 5° C | 61% | 1010.6 hPa | 0 mm | 0.89 m/s, 338° | 17 W/m² | - |
| 1778024754 | 5° C | 56% | 1010.6 hPa | 0 mm | 0.45 m/s, 343° | 16 W/m² | - |
| 1778024451 | 5° C | 55% | 1010.7 hPa | 0 mm | 0 m/s | 15 W/m² | - |
| 1778024149 | 5° C | 56% | 1010.6 hPa | 0 mm | 0.89 m/s, 357° | 15 W/m² | - |
| 1778023846 | 5° C | 60% | 1010.5 hPa | 0 mm | 0.45 m/s, 336° | 18 W/m² | - |
| 1778023544 | 5° C | 58% | 1010.5 hPa | 0 mm | 0.89 m/s, 328° | 18 W/m² | - |
| 1778023241 | 5° C | 58% | 1010.5 hPa | 0 mm | 0.45 m/s, 337° | 26 W/m² | - |
| 1778022937 | 5° C | 60% | 1010.5 hPa | 0 mm | 0.89 m/s, 332° | 16 W/m² | - |
| 1778022636 | 5° C | 61% | 1010.6 hPa | 0 mm | 0.45 m/s, 334° | 14 W/m² | - |
| 1778022333 | 5° C | 58% | 1010.9 hPa | 0 mm | 0.45 m/s, 310° | 17 W/m² | - |
| 1778022030 | 5° C | 57% | 1010.6 hPa | 0 mm | 0.45 m/s, 341° | 23 W/m² | - |
| 1778021726 | 5° C | 56% | 1010.7 hPa | 0 mm | 1.34 m/s, 320° | 25 W/m² | - |
| 1778021422 | 5° C | 56% | 1010.9 hPa | 0 mm | 0.45 m/s, 347° | 22 W/m² | - |
| 1778021120 | 5° C | 57% | 1010.6 hPa | 0 mm | 0 m/s | 25 W/m² | - |
| 1778020817 | 5° C | 54% | 1010.6 hPa | 0 mm | 0.45 m/s, 345° | 27 W/m² | - |
| 1778020514 | 5° C | 54% | 1010.6 hPa | 0 mm | 0.45 m/s, 344° | 28 W/m² | - |
| 1778020216 | 5° C | 54% | 1010.3 hPa | 0 mm | 0.45 m/s, 344° | 29 W/m² | - |
| 1778019907 | 5.56° C | 56% | 1010.4 hPa | 0 mm | 0.45 m/s, 328° | 32 W/m² | - |
| 1778019602 | 5° C | 60% | 1010.6 hPa | 0 mm | 0.45 m/s, 308° | 39 W/m² | - |
| 1778019300 | 5° C | 58% | 1010.6 hPa | 0 mm | 1.34 m/s, 296° | 38 W/m² | - |
| 1778018997 | 5° C | 53% | 1010.5 hPa | 0 mm | 0.89 m/s, 346° | 35 W/m² | - |
| 1778018694 | 5° C | 54% | 1010.6 hPa | 0 mm | 0.89 m/s, 337° | 35 W/m² | - |
* Rain latest hour (hover to see other rain measurements)
** Current wind speed in m/s (hover to see current wind gust speed)